[Date Prev][Date Next][Thread Prev][Thread Next] - [Date Index][Thread Index][Author Index]

2 Line ISS Keps 3-28



ISS
1 25544U 98067A   04088.19072133  .00026377  00000-0  24282-3 0  4593
2 25544  51.6303  18.4331 0010460 327.9644 179.9967 15.67400245305602


----
Via the sarex mailing list at AMSAT.ORG courtesy of AMSAT-NA.
To unsubscribe, send "unsubscribe sarex" to Majordomo@amsat.org



AMSAT Top AMSAT Home